Location: Rowland
(34.5359°N, 79.2929°W)
Time: 13:58:56
(UTC+00:00)

Vanguard 2 - Pass Details

Date: 04 October 2022
Orbit: 553 x 2932 km, 32.9° (Epoch: 08 December)

Event Time Altitude Azimuth Distance (km) Brightness Sun altitude
Rises 01:27:15 0° 282° (WNW) 6,696 13.5 -31.1°
Reaches altitude 10° 01:32:49 10° 271° (W) 5,758 12.7 -32.2°
Maximum altitude 01:45:41 26° 224° (SW) 4,382 11.4 -34.7°
Enters shadow 01:56:11 12° 178° (S) 4,857 11.3 -36.7°
